Change the Weather History Date:

Monday, April 22, 2013

  Actual Average Record
Temperature  
Mean Temperature 30 °F 35 °F  
Max Temperature 40 °F 49 °F 73 °F (1994)
Min Temperature 19 °F 21 °F 1 °F (2011)
Degree Days  
Heating Degree Days 35 30  
Month to date heating degree days 709 718  
Since 1 July heating degree days 8993 9436  
Cooling Degree Days 0 0  
Month to date cooling degree days 0 0  
Year to date cooling degree days 0 0  
Moisture  
Dew Point 12 °F    
Average Humidity 56    
Maximum Humidity 92    
Minimum Humidity 20    
Precipitation  
Precipitation 0.00 in 0.06 in 0.33 in (2014)
Month to date precipitation 1.41 1.26  
Year to date precipitation 4.24 6.38  
Sea Level Pressure  
Sea Level Pressure 30.08 in    
Wind  
Wind Speed 7 mph (NNW)    
Max Wind Speed 17 mph    
Max Gust Speed 25 mph    
T = Trace of Precipitation, MM = Missing Value Source: NWS Daily Summary

Daily Weather History Graph

Daily Weather History Graph

Search for Another Location

Airport or City:

Trip Planner

Search our weather history database for the weather conditions in past years. The results will help you decide how hot, cold, wet, or windy it might be!

Date:

Astronomy

Apr. 22, 2013 Rise Set
Actual Time 6:44 AM MDT 8:32 PM MDT
Civil Twilight 6:13 AM MDT 9:03 PM MDT
Nautical Twilight 5:35 AM MDT 9:41 PM MDT
Astronomical Twilight 4:55 AM MDT 10:22 PM MDT
Moon 5:20 PM MDT (4/22) 4:48 AM MDT (4/22)
Length of Visible Light 14h 50m
Length of Day
13h 48m
Waxing Gibbous, 88% of the Moon is Illuminated
Apr 22
Waxing Gibbous
Apr 25
Full
May 2
Last Quarter
May 9
New
May 17
First Quarter

Hourly Weather History & Observations

Time (MDT) Temp. Windchill Dew Point Humidity Pressure Visibility Wind Dir Wind Speed Gust Speed Precip Events Conditions
12:51 AM 33.1 °F 26.9 °F 16.0 °F 50% 29.90 in - NW 6.9 mph - N/A   Unknown
1:51 AM 32.0 °F 28.7 °F 21.0 °F 64% 29.91 in - NNW 3.5 mph - N/A   Unknown
2:51 AM 30.9 °F 27.5 °F 23.0 °F 72% 29.91 in - West 3.5 mph - N/A   Unknown
3:51 AM 28.0 °F 24.2 °F 26.1 °F 92% 29.94 in - NNE 3.5 mph - N/A   Unknown
4:51 AM 28.0 °F 17.5 °F 21.9 °F 78% - - NW 12.7 mph 19.6 mph N/A   Unknown
5:51 AM 27.0 °F 21.6 °F 21.0 °F 78% - - NNE 4.6 mph - N/A   Unknown
6:51 AM 26.1 °F 17.6 °F 12.9 °F 58% - - NNW 8.1 mph 16.1 mph N/A   Unknown
7:51 AM 25.0 °F 19.3 °F 15.1 °F 66% 30.02 in - NNW 4.6 mph - N/A   Unknown
8:51 AM 28.9 °F 19.2 °F 16.0 °F 58% 30.03 in - NW 11.5 mph 21.9 mph N/A   Unknown
9:51 AM 28.9 °F 19.8 °F 15.1 °F 56% 30.06 in - NW 10.4 mph 19.6 mph N/A   Unknown
11:51 AM 36.0 °F 26.0 °F 8.1 °F 31% 30.08 in - North 17.3 mph 24.2 mph N/A   Unknown
12:51 PM 36.0 °F 28.5 °F 8.1 °F 31% 30.08 in - NNW 10.4 mph 20.7 mph N/A   Unknown
1:51 PM 37.0 °F 28.9 °F 8.1 °F 30% 30.07 in - North 12.7 mph 17.3 mph N/A   Unknown
2:51 PM 37.0 °F 30.4 °F 7.0 °F 29% 30.09 in - NNW 9.2 mph - N/A   Unknown
3:51 PM 37.0 °F 31.0 °F 3.9 °F 25% 30.11 in - WNW 8.1 mph - N/A   Unknown
4:51 PM 39.0 °F 33.4 °F 1.9 °F 21% 30.10 in - NW 8.1 mph - N/A   Unknown
5:51 PM 37.9 °F 32.1 °F 1.9 °F 22% 30.11 in - NW 8.1 mph - N/A   Unknown
6:51 PM 37.0 °F 29.8 °F 1.9 °F 23% 30.13 in - NNW 10.4 mph - N/A   Unknown
7:51 PM 34.0 °F 27.2 °F 3.9 °F 28% 30.17 in - NW 8.1 mph - N/A   Unknown
8:51 PM 30.0 °F 25.2 °F 6.1 °F 36% 30.18 in - North 4.6 mph - N/A   Unknown
9:51 PM 26.1 °F - 8.1 °F 47% 30.23 in - Calm Calm - N/A   Unknown
10:51 PM 21.0 °F - 10.0 °F 63% 30.25 in - Calm Calm - N/A   Unknown
11:51 PM 19.9 °F - 10.0 °F 65% 30.25 in - Calm Calm - N/A   Unknown